Wind_Speed
35 38 41 45 47 47 45 43 42 43 44 45 47 47 48 48 47 47 47 48 49 51 53 55 55 55 55 55 55 54 52 51 50 50 49 49 49 47 45 45 43 43 42
40 44 46 45 45 43 41 40 40 41 42 44 45 47 47 48 49 49 49 49 50 51 52 54 55 56 56 56 56 55 54 53 52 52 52 52 51 49 48 47 47 48 46
44 44 42 41 40 39 38 38 39 40 41 43 45 47 48 49 49 49 50 50 50 52 53 54 55 56 56 56 56 55 55 54 54 54 54 54 52 51 50 49 49 50 50
37 36 36 37 36 36 37 37 38 38 39 41 43 44 46 47 48 49 50 51 52 53 54 55 57 57 57 57 57 58 57 56 55 55 56 55 54 52 50 51 51 51 51
33 32 33 34 34 34 36 38 39 41 42 44 46 47 48 50 52 53 54 56 57 58 59 59 60 61 61 60 60 60 58 58 57 56 56 56 54 52 51 52 51 50 49
31 31 33 35 37 38 40 42 43 45 47 48 50 50 51 52 53 55 56 58 60 61 63 64 63 64 64 63 62 61 60 59 58 58 57 56 54 53 51 50 49 49 48
33 35 37 39 41 42 45 47 48 50 51 54 55 56 56 55 56 56 57 59 60 61 62 62 63 64 65 65 64 63 62 60 58 59 59 57 55 54 50 48 48 48 48
37 39 41 44 46 48 49 51 53 53 54 55 57 59 58 57 56 57 58 60 61 61 61 60 60 61 62 63 63 63 63 61 59 59 59 58 54 52 50 47 46 47 50
42 45 47 49 49 49 50 52 54 56 57 58 61 62 63 64 65 64 65 65 65 65 65 65 65 65 63 62 61 62 62 61 62 61 60 58 54 51 48 45 44 45 49
48 48 48 48 49 52 54 56 58 60 61 62 64 67 70 73 76 75 73 73 73 72 70 68 66 65 64 64 63 62 62 63 63 62 60 60 58 53 50 48 46 45 47
47 48 50 53 56 59 61 63 64 65 68 70 73 75 78 80 83 84 82 80 81 82 81 79 73 70 67 65 65 65 64 67 67 65 63 61 61 58 51 48 47 47 47
52 55 58 61 64 67 69 71 72 74 77 79 81 83 85 87 89 92 93 91 90 90 92 92 90 84 76 71 69 68 66 69 66 64 62 63 61 59 55 51 49 46 49
57 61 65 68 71 73 75 76 78 81 83 85 87 89 91 94 96 98 101 102 102 100 99 98 96 93 85 77 72 69 69 71 70 66 64 60 58 61 63 57 56 54 54
65 69 72 74 75 77 79 81 83 86 88 91 94 97 99 100 101 101 101 102 103 103 101 98 94 90 83 77 73 71 69 69 71 72 72 69 67 68 67 63 61 60 59
71 74 75 77 78 81 85 88 91 94 97 100 101 103 105 105 103 100 96 91 88 90 92 87 82 79 74 70 66 67 68 68 67 68 67 68 70 67 62 59 59 56 55
72 75 78 80 84 88 92 95 98 100 102 103 105 104 102 99 94 89 82 74 70 72 74 66 65 64 62 61 60 63 66 68 69 68 67 67 65 65 65 60 56 55 56
74 77 79 82 87 92 96 99 102 104 104 105 102 97 91 85 79 72 65 62 60 62 64 59 57 57 59 61 61 61 61 63 65 66 67 67 65 65 68 68 65 62 60
76 79 83 88 93 97 101 104 104 103 102 98 92 84 76 72 68 64 62 60 60 61 65 66 62 62 64 66 67 65 63 63 61 60 64 64 64 63 62 63 66 67 59
81 86 91 96 99 101 102 101 98 94 89 84 79 75 72 70 68 66 66 67 69 71 74 78 78 77 77 78 78 74 70 66 63 62 62 63 62 62 62 60 62 64 61
88 93 98 100 100 98 94 90 85 81 78 75 73 73 73 73 72 72 72 75 78 80 82 84 86 87 88 86 85 82 76 71 67 63 61 62 65 63 64 62 61 63 62
96 99 99 96 91 85 81 79 77 76 76 75 75 76 77 78 79 80 81 83 85 88 89 91 93 94 89 83 76 74 74 69 63 63 63 62 64 64 65 63 63 63 63
98 97 92 85 78 75 78 81 84 85 84 85 85 85 86 87 88 90 92 94 95 97 97 97 95 87 74 66 62 61 61 62 59 59 61 60 58 59 60 60 61 61 61
95 89 79 73 74 80 85 89 91 91 90 89 88 87 87 87 89 91 92 95 95 92 89 85 79 69 60 55 54 52 52 54 54 55 60 58 57 55 56 58 59 60 60
86 77 72 75 81 87 91 91 91 87 82 76 72 69 69 69 71 74 76 76 73 68 64 62 58 57 55 49 45 43 43 45 48 51 55 56 56 56 57 58 57 56 56
75 71 75 81 88 91 91 88 82 75 68 63 61 61 63 63 59 59 59 57 52 47 45 43 43 44 45 40 36 35 35 37 41 44 48 51 52 54 54 54 55 53 50
71 74 79 86 92 90 85 78 72 66 60 59 58 56 56 55 52 48 47 45 41 36 33 29 30 32 33 29 26 28 29 28 31 33 38 44 47 49 50 49 48 47 44
Wind_Direction
284 285 286 289 291 292 291 290 288 288 287 287 289 290 291 292 292 291 290 289 287 286 286 287 287 287 288 288 289 289 290 291 290 291 291 292 293 292 291 289 284 283 283
288 289 291 293 293 292 290 288 287 287 288 288 288 289 290 290 289 289 289 289 288 287 286 286 286 286 286 286 287 287 288 288 288 288 288 289 290 290 290 288 285 285 284
288 289 291 291 290 290 290 289 289 288 289 290 290 290 290 290 290 289 288 288 287 286 286 285 285 284 284 284 284 285 285 286 286 286 287 287 288 289 289 287 285 285 284
289 289 290 289 292 295 296 295 294 293 293 293 293 293 293 294 292 291 290 289 288 287 287 286 284 284 284 284 283 283 283 284 285 285 285 286 286 287 287 286 285 284 284
292 293 293 294 295 295 293 293 293 293 293 292 292 293 293 293 292 292 291 290 290 289 288 287 286 286 286 285 284 284 284 285 285 284 283 283 285 286 284 284 283 282 280
293 293 293 292 292 291 291 291 291 292 292 291 292 292 291 291 291 291 290 289 289 289 288 288 287 286 285 285 284 284 284 283 283 282 282 282 283 283 283 281 281 280 274
294 294 294 292 292 293 294 294 295 295 297 296 295 295 294 294 293 292 291 290 289 288 287 287 286 285 284 283 283 283 283 282 281 281 282 282 282 281 278 276 276 274 271
290 291 292 294 295 296 297 297 298 299 299 299 298 296 294 293 292 292 292 292 291 290 290 288 287 286 286 286 285 282 281 280 279 279 279 279 279 277 277 274 272 268 270
291 293 296 297 299 300 300 300 300 301 300 299 299 299 297 297 294 293 292 292 290 290 290 290 289 288 287 284 282 280 277 274 275 276 278 278 276 276 276 271 267 267 268
294 296 297 297 298 299 299 298 298 298 298 298 298 298 298 297 296 294 293 292 290 289 288 287 287 286 284 281 278 275 274 273 272 271 272 274 274 272 271 268 265 268 266
296 297 297 297 299 299 299 298 297 297 297 297 297 297 297 297 296 294 293 290 289 289 288 287 285 283 280 277 274 271 270 271 268 268 270 270 271 269 266 262 260 262 264
301 301 301 301 301 301 301 300 299 298 298 297 297 297 296 296 296 296 294 292 291 290 290 289 288 285 281 275 270 268 267 268 266 268 270 270 268 268 266 260 256 256 260
302 302 302 301 300 299 298 298 297 297 296 296 296 297 298 298 298 297 297 296 294 292 290 288 287 285 282 278 272 267 263 261 262 263 262 265 267 266 264 260 255 257 257
305 304 302 300 298 297 297 297 296 296 296 296 298 298 298 299 298 298 296 295 293 290 288 287 284 282 278 275 272 268 262 258 257 258 258 258 258 260 263 262 263 261 256
307 305 304 302 302 302 302 302 300 299 299 299 299 299 299 298 297 296 295 294 294 292 289 288 285 284 283 280 274 268 266 263 260 257 257 258 259 257 256 258 263 260 256
307 306 305 304 304 303 302 300 299 299 299 298 297 297 297 297 295 294 294 293 291 289 288 288 284 282 279 275 270 267 262 259 257 256 256 257 260 261 257 253 257 259 257
306 305 303 302 301 301 301 301 300 300 299 299 298 298 297 295 294 293 293 291 288 286 286 289 289 288 287 283 277 270 266 261 257 255 256 256 257 258 257 252 248 252 255
305 303 303 303 304 304 303 302 301 301 301 300 299 297 295 294 294 293 291 289 287 286 286 289 289 289 289 287 283 278 270 263 259 258 256 255 255 255 255 256 252 250 250
307 307 307 307 307 306 305 304 303 302 301 300 298 297 295 294 292 291 289 288 287 286 286 287 288 289 289 288 285 281 276 269 262 256 255 255 253 252 252 253 253 253 253
311 311 310 309 309 309 308 306 305 304 302 299 296 293 291 290 289 288 287 286 286 285 286 286 288 289 289 289 285 280 274 270 265 258 253 253 251 248 248 247 249 249 251
313 312 312 312 312 311 309 308 307 305 301 298 295 291 289 288 287 286 286 285 285 285 285 286 286 287 288 287 284 278 273 267 262 258 253 251 252 247 246 246 249 249 250
315 316 316 315 314 313 312 311 308 306 303 299 295 291 288 286 285 285 285 284 284 284 284 284 286 287 287 285 282 278 274 267 259 255 253 247 249 247 247 247 249 249 250
318 318 317 316 316 315 314 312 310 308 306 302 299 295 291 289 287 285 284 283 283 283 283 283 284 285 284 282 280 277 272 265 257 250 249 245 245 245 246 248 249 247 248
320 319 318 319 318 318 316 314 313 311 310 310 308 307 303 299 295 292 289 287 286 284 282 280 280 282 282 280 277 275 271 262 253 247 247 244 242 243 243 245 247 248 248
319 318 320 320 321 321 318 317 316 316 318 318 317 314 311 308 303 298 295 293 292 290 285 282 279 277 277 276 275 272 268 262 255 246 244 243 239 240 241 241 243 245 247
318 319 321 322 323 322 320 318 318 320 322 324 322 317 315 313 312 308 306 304 303 299 292 283 276 271 270 272 270 270 268 262 260 249 244 242 239 238 236 236 237 237 241
Height
5811 5810 5808 5806 5803 5800 5796 5794 5791 5790 5787 5785 5783 5780 5777 5775 5772 5770 5768 5765 5763 5760 5757 5754 5751 5748 5746 5743 5740 5737 5735 5733 5730 5728 5725 5722 5719 5717 5715 5713 5711 5709 5708
5805 5803 5801 5798 5794 5790 5787 5785 5782 5780 5778 5775 5772 5769 5767 5764 5761 5759 5757 5755 5752 5749 5746 5743 5739 5736 5734 5731 5729 5726 5723 5721 5718 5716 5713 5710 5708 5705 5703 5701 5700 5698 5696
5798 5796 5794 5790 5785 5781 5779 5776 5774 5771 5769 5766 5763 5759 5757 5754 5751 5748 5746 5743 5740 5736 5733 5730 5727 5724 5721 5719 5717 5715 5711 5708 5706 5703 5701 5699 5697 5694 5692 5689 5688 5686 5685
5790 5789 5786 5782 5779 5776 5773 5770 5766 5764 5761 5758 5754 5751 5748 5745 5741 5738 5735 5731 5728 5725 5721 5718 5714 5711 5709 5706 5703 5700 5698 5696 5693 5691 5688 5686 5685 5682 5680 5677 5675 5673 5672
5784 5782 5779 5775 5773 5770 5766 5762 5758 5754 5752 5749 5745 5742 5738 5734 5731 5727 5723 5719 5715 5712 5709 5705 5702 5698 5696 5692 5689 5686 5685 5683 5681 5678 5675 5673 5672 5670 5667 5665 5663 5661 5659
5776 5774 5771 5767 5764 5761 5757 5753 5749 5745 5742 5737 5733 5731 5727 5723 5719 5714 5710 5705 5702 5698 5693 5690 5687 5684 5680 5676 5673 5671 5669 5667 5666 5664 5662 5660 5659 5657 5655 5652 5650 5649 5647
5768 5766 5762 5759 5755 5752 5747 5743 5739 5735 5730 5724 5720 5717 5715 5711 5706 5702 5696 5692 5687 5683 5678 5675 5671 5667 5664 5660 5656 5654 5651 5650 5649 5647 5646 5645 5645 5644 5642 5640 5638 5636 5634
5760 5757 5753 5749 5745 5741 5736 5731 5725 5721 5717 5710 5704 5700 5699 5698 5694 5689 5684 5679 5674 5668 5663 5659 5655 5650 5646 5643 5641 5637 5634 5632 5632 5630 5629 5628 5628 5628 5628 5627 5625 5623 5621
5752 5748 5744 5740 5735 5730 5724 5719 5713 5706 5702 5697 5689 5684 5680 5678 5675 5674 5670 5665 5659 5654 5648 5643 5638 5634 5629 5625 5622 5620 5618 5615 5613 5611 5610 5610 5612 5612 5613 5611 5611 5610 5608
5744 5739 5734 5729 5724 5718 5713 5707 5700 5693 5688 5683 5677 5669 5662 5657 5652 5651 5651 5646 5640 5636 5630 5625 5620 5615 5611 5608 5605 5603 5600 5598 5596 5594 5592 5591 5592 5594 5595 5595 5595 5595 5594
5734 5729 5724 5718 5712 5706 5699 5693 5686 5679 5672 5666 5660 5653 5646 5639 5630 5624 5626 5626 5621 5615 5609 5606 5602 5597 5592 5587 5584 5583 5581 5579 5577 5574 5572 5571 5571 5573 5575 5576 5577 5577 5577
5722 5716 5710 5703 5696 5690 5683 5675 5668 5660 5653 5646 5639 5631 5624 5617 5610 5599 5593 5594 5594 5593 5587 5583 5577 5573 5570 5566 5563 5562 5560 5558 5556 5555 5553 5553 5554 5554 5555 5557 5559 5559 5560
5711 5704 5697 5690 5682 5675 5667 5659 5650 5642 5633 5625 5617 5608 5599 5590 5581 5571 5561 5557 5556 5559 5558 5557 5549 5546 5543 5540 5539 5538 5536 5534 5533 5534 5535 5535 5535 5536 5536 5538 5539 5541 5543
5697 5690 5683 5675 5666 5658 5649 5641 5632 5622 5613 5604 5594 5584 5574 5565 5553 5542 5531 5521 5517 5519 5521 5525 5519 5517 5514 5513 5512 5512 5510 5509 5509 5510 5511 5512 5513 5515 5517 5519 5520 5521 5524
5681 5673 5665 5657 5648 5638 5628 5618 5609 5598 5588 5577 5567 5556 5545 5536 5525 5513 5503 5494 5485 5479 5483 5492 5486 5487 5483 5484 5486 5487 5487 5488 5488 5489 5488 5488 5489 5490 5493 5497 5501 5503 5505
5666 5658 5649 5638 5628 5617 5606 5596 5586 5575 5564 5552 5541 5531 5519 5508 5499 5489 5481 5475 5467 5455 5449 5460 5460 5460 5460 5457 5459 5460 5462 5462 5464 5465 5464 5464 5465 5466 5471 5474 5479 5482 5486
5650 5641 5631 5621 5610 5599 5587 5575 5563 5551 5540 5528 5515 5503 5493 5482 5474 5468 5462 5455 5449 5440 5430 5437 5438 5439 5438 5437 5438 5435 5435 5437 5439 5441 5440 5440 5441 5442 5446 5452 5457 5460 5466
5633 5624 5613 5602 5590 5576 5562 5549 5537 5523 5511 5500 5488 5477 5468 5459 5453 5447 5441 5434 5427 5421 5413 5412 5418 5419 5418 5414 5412 5412 5412 5413 5415 5417 5417 5418 5421 5423 5425 5430 5435 5439 5444
5617 5605 5593 5579 5565 5549 5535 5520 5508 5497 5485 5474 5465 5455 5447 5439 5433 5427 5420 5413 5407 5402 5396 5389 5391 5393 5392 5391 5387 5387 5388 5389 5390 5393 5395 5396 5399 5402 5407 5410 5415 5419 5423
5597 5584 5570 5553 5537 5521 5506 5494 5483 5473 5463 5453 5444 5435 5426 5417 5410 5404 5398 5390 5383 5377 5374 5367 5363 5364 5362 5362 5357 5354 5358 5362 5365 5368 5371 5374 5377 5380 5386 5390 5395 5400 5404
5575 5560 5543 5527 5511 5496 5483 5472 5462 5452 5442 5433 5424 5413 5404 5395 5386 5378 5370 5364 5356 5349 5346 5341 5337 5334 5332 5331 5327 5323 5323 5331 5339 5343 5347 5352 5354 5360 5365 5370 5374 5379 5384
5551 5533 5517 5503 5490 5476 5464 5452 5438 5427 5418 5407 5397 5387 5378 5369 5359 5350 5342 5334 5327 5320 5315 5312 5308 5306 5306 5303 5300 5298 5297 5302 5312 5319 5321 5328 5333 5338 5344 5348 5354 5360 5367
5528 5512 5496 5482 5471 5458 5444 5430 5414 5402 5390 5377 5364 5354 5345 5336 5326 5316 5311 5302 5296 5292 5286 5284 5282 5281 5281 5280 5278 5278 5277 5278 5287 5297 5298 5308 5314 5319 5325 5330 5335 5343 5350
5506 5492 5479 5466 5454 5441 5423 5407 5390 5377 5365 5352 5339 5327 5316 5307 5297 5286 5278 5273 5269 5267 5264 5262 5263 5259 5258 5260 5259 5260 5259 5260 5266 5275 5279 5288 5297 5303 5309 5314 5320 5328 5335
5489 5477 5463 5448 5434 5421 5402 5384 5368 5357 5348 5338 5325 5312 5297 5286 5277 5266 5258 5253 5251 5251 5247 5245 5244 5244 5242 5244 5245 5244 5245 5246 5252 5259 5264 5270 5280 5286 5293 5300 5307 5315 5322
5472 5460 5447 5431 5416 5401 5384 5367 5353 5342 5333 5324 5313 5299 5286 5274 5264 5255 5246 5240 5236 5235 5233 5232 5231 5230 5231 5233 5234 5234 5235 5235 5238 5245 5252 5256 5264 5270 5278 5287 5294 5302 5310